Temperature
14 14 14 14 14 14 14 14 14 14 14 14 14 14 14 14 14 14 14 14 14 14 14 14 13 13 13 13 13 13 13 13 13 13 12 12 12 12 12 12 12 12 11
14 14 14 14 14 14 14 14 14 14 14 14 14 14 14 14 14 13 14 14 14 14 14 14 13 13 13 13 13 13 13 13 13 12 12 12 12 12 12 12 11 11 11
14 14 14 14 14 14 14 14 14 13 13 13 14 14 14 13 14 13 13 13 14 14 14 13 13 13 13 13 13 13 13 13 13 13 12 12 12 12 11 11 11 11 11
14 14 14 14 14 14 13 13 13 13 13 13 13 13 13 14 14 13 13 13 13 13 13 13 13 13 13 13 13 13 13 13 13 13 12 12 12 11 11 11 11 11 11
13 13 13 13 13 13 13 13 13 13 13 13 13 13 13 13 13 13 13 13 13 13 13 13 13 13 13 13 13 13 13 13 13 12 12 12 12 11 11 11 11 10 10
13 13 13 13 13 13 13 13 13 13 13 13 12 12 13 13 13 13 13 13 13 13 13 13 13 13 13 13 13 13 13 13 13 12 12 12 12 11 11 11 11 10 10
12 12 12 12 12 12 13 13 12 12 12 12 12 12 12 12 12 13 13 13 13 13 13 13 13 13 13 13 13 13 13 13 12 12 12 12 11 11 11 10 10 10 10
12 12 12 12 12 12 12 12 12 12 12 12 12 11 11 12 12 12 13 13 13 13 13 13 13 13 13 13 12 12 12 12 12 12 12 12 11 11 10 10 10 10 9
12 12 12 12 12 12 12 12 12 12 11 11 11 12 12 13 12 12 12 13 13 13 13 13 13 13 12 12 12 12 12 12 12 12 12 11 11 10 10 10 9 9 9
11 11 11 11 11 11 11 12 12 12 11 11 11 11 12 12 12 12 12 12 12 12 12 12 13 13 12 12 12 12 12 12 12 11 11 11 11 10 10 10 9 9 9
10 11 11 11 11 11 11 11 11 11 11 11 11 11 11 11 11 12 12 12 12 12 12 12 12 12 12 12 12 12 12 12 11 11 11 11 10 10 9 9 9 9 9
10 10 10 10 10 10 11 11 11 11 11 11 11 11 11 11 11 11 11 11 11 12 12 12 12 12 12 12 12 12 11 11 11 11 11 10 10 10 9 9 9 9 9
9 10 10 10 10 10 10 10 10 10 10 10 10 10 10 10 11 11 11 11 11 11 11 11 12 12 12 12 11 11 11 11 11 10 10 10 10 9 9 9 9 9 8
8 9 9 9 9 9 9 10 10 10 10 10 10 10 10 10 10 10 10 10 10 10 11 11 11 11 11 11 11 11 11 10 10 10 10 9 9 9 9 9 9 8 8
8 8 8 8 9 9 9 9 9 9 9 9 9 9 9 9 10 10 10 10 10 10 10 10 11 11 11 11 11 11 10 10 10 10 9 9 9 8 8 8 8 8 8
7 7 7 7 8 8 8 8 8 8 9 9 9 9 9 9 9 9 9 9 9 9 10 10 10 11 11 11 11 10 10 10 9 9 9 9 8 8 8 8 8 8 7
6 6 6 7 7 7 7 7 7 8 8 8 8 8 8 8 8 8 9 9 9 9 9 9 9 10 10 10 10 10 9 9 9 8 8 8 8 8 7 7 7 7 7
5 5 6 6 6 6 6 6 7 7 7 7 7 7 8 8 8 8 8 8 8 8 8 8 8 9 9 9 9 9 9 9 8 8 8 7 7 7 7 7 7 6 6
4 4 5 5 5 5 5 6 6 6 6 6 6 7 7 7 7 7 7 7 7 7 7 7 8 8 8 9 8 8 8 8 7 7 7 7 6 6 6 6 6 6 6
3 3 4 4 4 4 4 4 5 5 5 5 5 6 6 6 6 6 6 6 7 7 7 7 7 7 7 8 7 7 7 7 7 7 6 6 6 6 5 5 5 5 5
3 3 3 3 3 3 3 3 3 3 4 4 4 4 5 5 5 5 5 6 6 6 6 6 6 6 6 6 7 7 6 6 6 6 5 5 5 5 5 5 5 5 5
2 2 2 2 2 2 2 2 2 2 3 3 3 3 4 4 4 5 5 5 5 5 5 5 5 6 6 6 6 6 6 5 5 5 5 5 4 4 5 5 5 4 4
1 1 1 1 1 1 1 1 1 1 2 2 2 2 3 3 3 4 4 4 4 4 5 5 5 5 5 6 6 5 5 5 5 6 5 4 4 4 4 4 4 4 4
-0 -0 -0 -0 0 0 1 0 0 0 1 1 1 1 1 2 2 2 2 3 3 4 4 4 5 5 5 5 6 6 6 5 4 4 4 3 3 3 3 3 3 3 3
-1 -1 -1 -1 -1 -1 -0 -0 -1 -0 -0 0 0 0 0 1 1 1 1 2 2 3 3 4 4 4 4 5 5 5 4 4 3 3 3 3 3 3 3 3 3 2 2
-2 -2 -2 -2 -2 -2 -1 -1 -2 -2 -2 -1 -1 -0 -0 -0 0 0 1 1 1 2 2 2 3 3 4 4 4 4 4 4 3 3 3 3 3 2 2 2 2 2 2
Wind_Speed
9 9 9 11 13 13 13 12 12 13 13 13 12 12 11 11 10 9 7 10 11 10 9 9 9 9 8 7 7 7 6 5 4 4 3 3 3 1 1 1 2 3 4
9 10 9 10 11 12 13 12 13 11 11 10 11 11 11 11 10 10 8 9 12 11 10 9 9 9 9 8 8 7 7 6 5 5 4 4 3 2 2 2 2 3 4
11 10 9 10 10 12 13 12 13 11 10 10 11 11 10 11 10 11 10 9 10 12 12 11 10 10 9 9 9 8 8 7 6 6 5 5 5 4 3 2 2 2 3
13 10 9 9 10 11 10 10 10 11 11 10 10 10 9 9 11 11 11 10 10 10 12 13 11 10 10 10 10 10 9 8 8 7 7 6 6 5 4 3 3 3 3
13 11 10 9 11 9 9 10 10 10 11 11 10 10 10 10 10 10 11 12 11 11 10 11 13 12 12 12 12 11 10 10 9 9 8 7 7 6 5 4 4 4 3
12 11 10 11 11 10 10 11 12 11 10 10 9 9 9 10 9 10 11 11 11 12 12 11 11 12 13 13 13 12 11 11 10 10 9 8 8 7 7 6 5 4 3
10 10 9 11 11 11 12 13 11 12 11 9 8 8 9 10 11 10 10 10 11 12 13 13 12 11 11 13 14 14 13 12 11 10 10 9 8 7 6 6 5 3 3
9 8 10 10 10 10 12 13 11 10 8 9 8 7 7 9 10 11 10 10 11 10 11 13 13 12 11 11 12 15 14 13 12 11 11 10 9 8 7 6 5 3 3
9 9 10 10 10 10 10 12 13 13 10 11 11 8 7 9 7 8 12 11 11 10 10 11 13 14 13 12 11 14 15 14 13 13 12 11 10 9 8 7 6 5 4
8 8 9 10 10 10 10 11 12 11 11 11 10 11 9 5 6 6 8 10 12 12 12 10 11 13 14 13 12 12 15 16 15 14 13 12 11 10 9 7 6 5 5
6 6 7 8 8 8 10 10 11 11 10 10 10 9 9 7 8 7 7 8 8 10 11 11 10 10 13 14 13 15 17 17 17 16 15 14 12 11 10 8 7 5 5
4 5 6 7 7 7 8 8 10 12 11 10 9 9 8 8 9 8 8 7 8 9 10 9 10 10 11 13 14 15 17 18 18 17 16 14 12 11 10 9 8 7 5
4 4 5 6 6 7 8 8 9 10 11 11 11 9 9 11 8 9 9 7 7 6 7 9 10 10 11 12 13 17 18 18 18 18 17 15 13 12 11 10 9 7 6
4 5 5 5 6 6 6 7 7 9 9 11 12 13 10 10 9 10 9 8 7 7 8 9 8 11 11 13 14 17 16 19 19 18 17 16 13 13 11 11 10 8 7
5 5 5 5 5 4 5 6 6 8 9 10 10 12 11 10 10 10 9 10 11 10 11 10 7 10 11 12 14 16 15 18 19 19 17 16 14 13 12 11 10 9 7
5 5 5 5 5 5 5 5 5 6 8 9 8 10 11 10 10 10 10 10 12 13 12 9 9 8 10 9 14 15 15 17 19 19 18 17 16 15 14 13 12 10 9
7 6 5 5 5 5 5 5 6 6 8 8 9 10 12 11 9 9 9 9 11 11 12 8 6 7 11 11 10 13 13 14 15 19 19 18 17 16 15 14 13 11 10
7 7 6 6 6 6 6 6 7 7 8 9 9 9 11 9 11 9 9 11 10 10 10 9 6 6 9 12 12 12 10 12 12 17 19 19 18 18 17 15 14 12 11
8 8 7 7 7 7 6 6 7 8 8 9 10 10 10 10 11 9 9 10 9 8 8 8 6 5 5 8 9 8 10 9 9 14 18 19 19 19 18 17 15 13 12
8 8 8 8 8 7 7 7 7 7 8 8 9 10 10 10 10 10 9 10 9 9 9 8 6 5 5 6 8 8 8 8 8 8 13 15 17 19 19 18 16 14 12
9 8 8 8 8 7 8 9 9 8 8 8 8 9 9 9 10 10 9 9 9 9 8 8 7 6 6 7 10 9 10 8 8 7 8 9 10 11 14 16 16 14 13
9 9 9 9 9 8 11 13 11 9 9 9 9 9 9 9 10 12 13 12 12 12 11 11 10 10 11 10 10 9 9 7 7 8 9 8 8 9 9 12 15 16 15
10 10 10 10 10 11 14 14 14 11 10 9 9 9 8 8 10 10 12 13 14 15 15 13 13 13 12 12 12 12 12 11 8 9 9 8 8 9 8 11 16 16 16
9 9 10 10 10 11 15 15 15 11 10 10 9 9 10 10 9 9 10 11 12 13 13 13 13 13 12 12 14 13 12 7 2 5 8 6 7 6 6 8 15 17 17
9 9 10 11 11 12 14 16 15 10 9 10 10 10 10 10 12 11 10 10 11 10 10 12 13 12 12 13 12 9 9 9 5 5 5 5 5 4 4 6 10 16 16
9 9 10 10 11 11 14 16 15 9 10 10 10 10 11 11 13 13 10 10 11 9 8 7 8 8 9 12 16 14 12 11 6 5 7 7 6 5 4 4 5 9 11
Wind_Direction
215 213 209 205 205 201 198 200 204 202 203 205 208 209 209 212 214 212 202 198 215 222 223 221 217 215 216 218 220 220 219 217 215 215 205 209 209 224 273 319 335 340 338
215 212 213 210 210 206 203 203 204 205 206 206 210 212 214 215 220 217 216 203 211 218 223 224 223 219 220 222 225 223 217 217 216 208 210 214 211 217 240 283 306 318 328
217 213 212 211 211 210 207 207 207 207 207 207 212 214 217 220 219 220 218 217 210 213 220 223 224 225 226 227 226 222 216 212 206 208 212 216 219 221 236 258 280 311 329
221 218 214 212 208 207 206 208 206 205 207 209 212 211 216 218 225 223 219 218 217 214 213 216 222 227 230 229 227 221 216 210 209 215 218 219 219 220 228 239 264 290 308
224 221 219 214 207 206 206 207 208 208 209 211 215 214 216 218 222 222 224 222 220 219 219 208 215 224 227 226 226 221 216 212 212 214 215 216 219 221 223 236 253 270 289
228 224 224 219 208 207 208 209 209 208 213 210 213 217 220 221 222 223 226 223 221 220 222 218 214 218 221 224 224 219 218 219 215 214 216 218 220 221 225 235 244 247 262
231 227 225 220 214 211 211 210 210 210 212 204 204 216 224 226 227 223 223 223 221 219 219 220 220 218 215 214 216 217 220 221 216 215 215 216 219 220 224 232 231 230 253
232 227 225 222 218 215 215 213 210 211 208 199 201 203 218 221 225 226 223 221 222 215 219 221 220 219 219 214 210 212 220 219 218 218 214 214 219 221 223 226 217 227 252
237 232 231 226 220 217 215 211 210 211 209 206 207 205 209 223 217 215 219 218 218 217 219 218 220 220 220 219 212 209 211 213 218 219 217 215 217 216 219 219 224 235 249
248 243 239 233 227 223 220 215 211 213 214 213 213 222 231 230 214 215 212 218 219 221 221 217 217 218 218 217 216 210 204 209 215 219 220 219 216 217 219 217 226 235 243
255 255 249 242 235 231 228 223 218 215 214 218 216 215 225 230 229 229 225 210 213 220 221 220 216 216 216 215 214 211 205 209 215 218 221 220 218 216 216 217 221 227 233
269 268 261 249 243 239 234 229 225 222 220 220 221 220 219 216 217 224 233 223 220 216 214 216 217 217 213 214 215 208 206 210 215 218 221 218 214 213 210 214 217 220 226
284 287 277 262 253 249 242 236 229 227 225 223 223 225 227 231 226 225 228 232 231 224 216 220 218 216 212 212 212 205 208 210 213 216 218 216 211 210 207 209 214 216 220
284 288 283 275 268 260 253 245 237 233 231 229 229 228 230 231 230 228 224 224 230 226 220 223 215 215 211 210 210 199 208 208 208 211 215 213 210 206 205 206 208 210 218
299 295 287 283 284 281 270 257 249 245 239 235 235 234 234 233 231 232 229 225 227 233 232 221 212 212 208 207 201 202 208 204 204 206 205 205 200 199 199 201 203 206 213
319 308 300 294 292 285 282 272 265 262 253 245 241 241 239 239 237 234 232 232 231 236 241 224 216 205 202 204 201 204 206 199 202 202 199 196 194 196 197 199 203 206 211
342 334 319 307 300 295 291 282 272 267 261 258 251 246 244 242 240 236 234 234 234 232 242 239 220 203 198 204 200 204 203 201 204 202 201 197 195 196 198 199 201 203 209
344 341 337 327 315 305 297 287 282 276 268 263 261 257 252 247 245 241 236 234 235 233 236 239 226 205 207 205 202 202 201 203 204 200 201 200 199 199 199 198 200 203 208
344 342 341 336 331 321 309 300 292 282 274 272 266 258 257 251 247 246 245 242 237 235 234 235 231 217 213 202 201 201 202 203 203 200 202 203 203 203 201 200 200 204 208
349 346 342 337 333 330 326 320 309 295 285 279 276 267 259 254 253 251 245 244 242 236 231 230 229 217 208 197 196 198 204 205 203 198 203 204 204 204 203 201 201 203 205
350 344 341 338 336 334 335 331 323 312 302 293 287 281 271 263 262 257 252 248 243 240 236 231 227 219 210 196 204 201 209 204 204 197 197 199 198 201 200 202 200 199 202
347 345 342 337 334 332 334 333 325 313 308 299 293 290 284 267 262 259 254 248 243 239 235 232 230 225 220 215 210 204 201 196 209 194 192 198 192 200 197 197 196 197 201
342 340 337 335 331 330 333 332 328 318 309 304 299 296 294 287 277 268 260 251 245 242 237 234 233 230 224 215 206 206 204 203 210 182 183 198 193 201 193 194 193 196 200
334 332 329 329 327 329 334 331 327 315 306 302 299 295 293 294 289 283 276 265 258 249 242 240 241 237 229 216 205 207 207 195 145 166 175 190 185 192 182 191 194 196 199
329 327 325 326 325 325 329 330 326 312 306 303 300 296 294 292 295 292 279 271 270 268 261 256 255 249 234 216 201 191 184 184 193 189 185 173 165 164 173 191 194 196 199
321 320 318 319 320 321 326 329 329 318 313 310 304 298 293 296 299 295 284 272 266 270 273 275 263 250 235 214 199 197 192 192 185 186 183 169 159 154 167 184 186 191 195
Height
1515 1517 1519 1520 1523 1525 1526 1528 1531 1533 1535 1537 1538 1540 1541 1542 1543 1544 1544 1544 1545 1545 1546 1546 1546 1546 1546 1546 1545 1545 1545 1545 1544 1544 1543 1543 1542 1542 1541 1540 1539 1538 1537
1511 1513 1514 1516 1518 1520 1523 1524 1527 1529 1531 1533 1535 1536 1538 1540 1540 1541 1542 1542 1542 1543 1544 1544 1544 1544 1544 1544 1544 1544 1543 1543 1543 1542 1542 1541 1541 1540 1539 1539 1538 1537 1535
1506 1508 1510 1511 1514 1516 1518 1521 1523 1525 1527 1529 1531 1533 1534 1536 1537 1538 1539 1539 1540 1540 1541 1541 1542 1542 1542 1542 1542 1542 1542 1541 1541 1541 1540 1540 1539 1539 1538 1537 1536 1535 1534
1502 1503 1505 1507 1509 1511 1513 1516 1518 1520 1522 1525 1527 1528 1530 1531 1533 1534 1535 1536 1537 1537 1538 1539 1539 1539 1540 1540 1540 1539 1539 1539 1539 1539 1538 1538 1537 1536 1536 1535 1534 1533 1532
1496 1498 1500 1502 1504 1506 1508 1510 1513 1515 1518 1520 1522 1524 1526 1527 1529 1530 1531 1532 1533 1534 1535 1535 1536 1536 1537 1537 1537 1537 1537 1537 1537 1536 1536 1535 1535 1534 1533 1533 1532 1531 1530
1491 1493 1494 1496 1498 1500 1503 1505 1508 1510 1513 1515 1517 1519 1521 1522 1524 1525 1526 1527 1528 1529 1530 1531 1532 1532 1533 1533 1534 1534 1534 1534 1534 1534 1533 1532 1532 1531 1531 1530 1529 1528 1527
1486 1487 1489 1491 1493 1494 1497 1499 1502 1505 1507 1510 1513 1514 1516 1517 1518 1519 1521 1522 1523 1524 1525 1526 1527 1528 1528 1529 1530 1530 1530 1531 1531 1530 1530 1529 1529 1528 1528 1527 1526 1526 1525
1481 1482 1484 1485 1487 1489 1491 1493 1496 1498 1500 1503 1506 1509 1511 1513 1511 1513 1514 1515 1517 1518 1520 1521 1522 1522 1524 1524 1525 1526 1526 1527 1527 1527 1526 1526 1526 1525 1525 1524 1523 1523 1522
1476 1477 1478 1480 1481 1483 1484 1486 1489 1492 1493 1496 1499 1502 1503 1504 1506 1507 1507 1509 1510 1512 1514 1515 1516 1517 1518 1519 1520 1521 1522 1522 1523 1523 1522 1522 1522 1522 1521 1521 1520 1520 1519
1470 1471 1473 1474 1475 1477 1478 1480 1483 1485 1487 1489 1492 1494 1496 1497 1500 1500 1501 1502 1503 1505 1507 1508 1510 1511 1512 1513 1514 1515 1516 1517 1518 1518 1518 1518 1518 1518 1518 1517 1516 1516 1515
1465 1466 1467 1468 1470 1471 1472 1474 1476 1478 1480 1482 1484 1486 1488 1490 1492 1493 1494 1495 1496 1497 1499 1501 1503 1504 1505 1507 1508 1509 1511 1512 1513 1513 1514 1514 1514 1514 1514 1513 1513 1512 1511
1461 1461 1462 1463 1464 1465 1466 1468 1470 1472 1473 1475 1477 1479 1481 1482 1484 1486 1487 1487 1488 1490 1492 1493 1495 1497 1499 1500 1501 1503 1505 1506 1507 1508 1508 1509 1509 1509 1509 1509 1509 1508 1507
1456 1457 1458 1458 1458 1459 1461 1462 1463 1465 1466 1468 1470 1471 1473 1475 1477 1479 1480 1481 1482 1482 1483 1485 1487 1489 1491 1493 1494 1496 1498 1500 1501 1502 1503 1504 1504 1504 1504 1504 1504 1504 1503
1453 1453 1453 1453 1453 1454 1455 1456 1457 1458 1459 1460 1462 1464 1465 1467 1469 1470 1472 1474 1475 1475 1475 1476 1479 1481 1483 1485 1487 1489 1491 1493 1495 1496 1497 1498 1498 1499 1499 1499 1499 1499 1498
1449 1449 1448 1448 1448 1449 1449 1449 1450 1451 1452 1453 1454 1456 1457 1459 1461 1462 1464 1466 1468 1467 1467 1468 1470 1472 1475 1477 1479 1482 1483 1485 1488 1489 1490 1491 1492 1493 1494 1494 1494 1494 1494
1445 1444 1444 1444 1444 1444 1444 1444 1444 1445 1445 1446 1447 1448 1449 1451 1452 1454 1455 1457 1458 1459 1459 1460 1461 1464 1467 1469 1472 1474 1476 1478 1480 1482 1483 1484 1485 1486 1487 1488 1488 1489 1488
1442 1441 1440 1440 1439 1438 1438 1438 1438 1438 1438 1439 1440 1440 1441 1443 1444 1445 1446 1447 1449 1450 1450 1452 1454 1456 1458 1460 1463 1466 1468 1470 1472 1474 1476 1477 1478 1480 1481 1482 1482 1483 1483
1439 1438 1437 1436 1435 1434 1433 1433 1432 1432 1432 1432 1432 1432 1433 1434 1435 1436 1437 1438 1440 1441 1442 1443 1444 1446 1448 1451 1454 1457 1459 1462 1464 1466 1468 1470 1471 1472 1474 1475 1476 1477 1478
1436 1435 1433 1432 1430 1429 1428 1427 1427 1426 1426 1425 1425 1425 1425 1426 1426 1427 1428 1429 1430 1432 1433 1435 1435 1437 1439 1442 1445 1448 1451 1453 1455 1458 1460 1461 1463 1465 1467 1468 1470 1471 1472
1434 1432 1430 1428 1427 1425 1423 1422 1421 1420 1419 1419 1418 1417 1417 1417 1418 1419 1419 1421 1422 1423 1425 1426 1427 1428 1430 1432 1435 1437 1440 1444 1446 1449 1451 1453 1455 1457 1459 1461 1463 1465 1466
1431 1429 1427 1425 1423 1421 1419 1417 1416 1415 1413 1412 1411 1410 1410 1409 1409 1411 1411 1412 1414 1415 1417 1417 1418 1419 1421 1423 1425 1428 1431 1434 1436 1439 1442 1445 1447 1449 1451 1454 1456 1458 1460
1429 1426 1424 1422 1420 1417 1415 1413 1412 1410 1408 1406 1405 1404 1403 1402 1402 1402 1403 1404 1406 1407 1407 1409 1409 1410 1411 1414 1417 1419 1421 1424 1426 1430 1433 1436 1439 1441 1443 1446 1449 1452 1454
1427 1424 1421 1418 1416 1414 1411 1409 1407 1405 1402 1401 1399 1397 1396 1395 1394 1394 1394 1395 1396 1397 1399 1400 1399 1400 1403 1405 1408 1410 1411 1413 1415 1419 1424 1427 1430 1433 1436 1439 1442 1445 1448
1424 1421 1418 1415 1412 1409 1407 1404 1402 1399 1397 1395 1393 1391 1389 1388 1387 1387 1386 1386 1386 1387 1389 1390 1391 1392 1394 1396 1398 1401 1402 1405 1408 1411 1415 1418 1422 1425 1429 1432 1436 1438 1441
1421 1418 1415 1412 1408 1405 1402 1399 1397 1394 1391 1389 1387 1386 1384 1382 1381 1380 1380 1379 1378 1378 1379 1380 1381 1383 1384 1386 1389 1392 1394 1396 1398 1401 1406 1410 1413 1418 1422 1425 1429 1432 1435
1419 1415 1412 1408 1405 1402 1398 1395 1392 1389 1386 1383 1381 1380 1378 1376 1375 1374 1373 1372 1371 1371 1371 1372 1372 1374 1375 1377 1379 1382 1384 1387 1389 1393 1397 1402 1406 1410 1414 1418 1422 1425 1428